Estación de San José
Ultimos registro cada 15 minutos 50
| N° | Estación | Fecha / Hora | Temperatura | Humedad | Lluvia | Velocidad | Dirección | Radiación | Presion |
| 50 | San José | 05-05-2026 12:15 | 17,5 | 70 | 0 | 0 | 4 | 195 | 1014,9 |
| 49 | San José | 05-05-2026 12:00 | 17,5 | 70 | 0 | 0 | 200 | 248 | 1015,1 |
| 48 | San José | 05-05-2026 11:45 | 17,5 | 70 | 0 | 0 | 200 | 230 | 1015,2 |
| 47 | San José | 05-05-2026 11:30 | 17,8 | 72 | 0 | 0 | 200 | 274 | 1015,3 |
| 46 | San José | 05-05-2026 11:15 | 17,8 | 70 | 0 | 0 | 185 | 260 | 1014,9 |
| 45 | San José | 05-05-2026 11:00 | 16,8 | 70 | 0 | 0 | 185 | 417 | 1015,1 |
| 44 | San José | 05-05-2026 10:45 | 16 | 74 | 0 | 0 | 185 | 227 | 1015,1 |
| 43 | San José | 05-05-2026 10:30 | 15,3 | 76 | 0 | 0 | 137 | 197 | 1015,1 |
| 42 | San José | 05-05-2026 10:15 | 15 | 76 | 0 | 0 | 126 | 132 | 1015,3 |
| 41 | San José | 05-05-2026 10:00 | 14,6 | 79 | 0 | 0 | 40 | 162 | 1015,4 |
| 40 | San José | 05-05-2026 09:45 | 13,6 | 82 | 0 | 0 | 131 | 211 | 1015,5 |
| 39 | San José | 05-05-2026 09:30 | 12,9 | 84 | 0 | 0 | 127 | 118 | 1015,7 |
| 38 | San José | 05-05-2026 09:15 | 12,4 | 85 | 0 | 0 | 114 | 121 | 1015,7 |
| 37 | San José | 05-05-2026 09:00 | 11,7 | 88 | 0 | 0 | 133 | 102 | 1015,7 |
| 36 | San José | 05-05-2026 08:45 | 11,3 | 89 | 0 | 0 | 229 | 84 | 1015,7 |
| 35 | San José | 05-05-2026 08:30 | 10,9 | 89 | 0 | 0 | 33 | 47 | 1015 |
| 34 | San José | 05-05-2026 08:15 | 10,7 | 89 | 0 | 0 | 324 | 39 | 1015,2 |
| 33 | San José | 05-05-2026 08:00 | 10,5 | 89 | 0 | 0 | 136 | 16 | 1014,7 |
| 32 | San José | 05-05-2026 07:45 | 10,4 | 89 | 0 | 0 | 300 | 9 | 1015,5 |
| 31 | San José | 05-05-2026 07:30 | 10,5 | 89 | 0 | 0 | 358 | 0 | 1015,5 |
| 30 | San José | 05-05-2026 07:15 | 10,4 | 89 | 0 | 0 | 287 | 0 | 1015,8 |
| 29 | San José | 05-05-2026 07:00 | 10,1 | 90 | 0 | 0 | 89 | 0 | 1015,5 |
| 28 | San José | 05-05-2026 06:45 | 9,9 | 91 | 0 | 0 | 137 | 0 | 1015,9 |
| 27 | San José | 05-05-2026 06:30 | 10 | 89 | 0 | 0 | 193 | 0 | 1016,9 |
| 26 | San José | 05-05-2026 06:15 | 10,2 | 89 | 0 | 0 | 235 | 0 | 1017,7 |
| 25 | San José | 05-05-2026 06:00 | 10,2 | 89 | 0 | 0 | 135 | 0 | 1016,8 |
| 24 | San José | 05-05-2026 05:45 | 10,2 | 89 | 0 | 0 | 294 | 0 | 1016,8 |
| 23 | San José | 05-05-2026 05:30 | 10,3 | 88 | 0 | 0 | 293 | 0 | 1017,1 |
| 22 | San José | 05-05-2026 05:15 | 10,4 | 87 | 0 | 0 | 294 | 0 | 1016,7 |
| 21 | San José | 05-05-2026 05:00 | 10,6 | 86 | 0 | 0 | 291 | 0 | 1017,1 |
| 20 | San José | 05-05-2026 04:45 | 10,3 | 87 | 0 | 0 | 84 | 0 | 1016,7 |
| 19 | San José | 05-05-2026 04:30 | 9,9 | 89 | 0 | 0 | 154 | 0 | 1017,3 |
| 18 | San José | 05-05-2026 04:15 | 9,8 | 88 | 0 | 0 | 154 | 0 | 1017,2 |
| 17 | San José | 05-05-2026 04:00 | 9,4 | 90 | 0 | 0 | 158 | 0 | 1016,2 |
| 16 | San José | 05-05-2026 03:45 | 9,3 | 90 | 0 | 0 | 149 | 0 | 1016,3 |
| 15 | San José | 05-05-2026 03:30 | 9,3 | 90 | 0 | 0 | 149 | 0 | 1016,3 |
| 14 | San José | 05-05-2026 03:15 | 9,4 | 90 | 0 | 0 | 149 | 0 | 1016,5 |
| 13 | San José | 05-05-2026 03:00 | 9,6 | 89 | 0 | 0 | 149 | 0 | 1016,6 |
| 12 | San José | 05-05-2026 02:45 | 9,7 | 88 | 0 | 0 | 149 | 0 | 1016,6 |
| 11 | San José | 05-05-2026 02:30 | 9,8 | 88 | 0 | 0 | 149 | 0 | 1016,9 |
| 10 | San José | 05-05-2026 02:15 | 9,8 | 88 | 0 | 0 | 149 | 0 | 1017,1 |
| 9 | San José | 05-05-2026 02:00 | 9,6 | 88 | 0 | 0 | 149 | 0 | 1017 |
| 8 | San José | 05-05-2026 01:45 | 9,4 | 88 | 0 | 0 | 149 | 0 | 1016,9 |
| 7 | San José | 05-05-2026 01:30 | 8,8 | 90 | 0 | 0 | 149 | 0 | 1017,1 |
| 6 | San José | 05-05-2026 01:15 | 8,7 | 90 | 0 | 0 | 143 | 0 | 1017,3 |
| 5 | San José | 05-05-2026 01:00 | 8,9 | 87 | 0 | 0 | 143 | 0 | 1017,4 |
| 4 | San José | 05-05-2026 00:45 | 9,5 | 88 | 0 | 0 | 143 | 0 | 1017,5 |
| 3 | San José | 05-05-2026 00:30 | 9,6 | 88 | 0 | 0 | 146 | 0 | 1017,4 |
| 2 | San José | 05-05-2026 00:15 | 9,7 | 89 | 0 | 0 | 149 | 0 | 1017,4 |
| 1 | San José | 05-05-2026 00:00 | 10 | 89 | 0 | 0 | 149 | 0 | 1017,4 |